[[{"header":{"parameterUnit":"m.s-1","parameterCategory":1,"la1":30.2991,"la2":30.254,"lo1":-89.0895,"lo2":-89.0444,"dy":0.0017,"dx":0.0017,"nx":28,"ny":28,"refTime":"2025-02-10T03:00:00:Z","depth":0,"parameterNumber":2,"parameterNumberName":"U-component_of_WINDS"},"data":[0,0,0,0,0,0,0,0,0,0,0,0,0,0,0,0,0,0,0,0,0,0,0,0,0,0,0,0,0,0,0,0,0,0,0,0,0,0,0,0,0,0,0,0,0,0,0,0,0,0,0,0,0,0,0,0,0,0,-2.281,-2.281,0,-2.2839,-2.2839,-2.2839,-2.2787,-2.2785,-2.2783,-2.2782,-2.2812,-2.2815,-2.2817,0,0,0,0,0,0,0,0,0,0,0,0,0,-2.2712,-2.2714,-2.281,-2.281,-2.2811,-2.2838,-2.2839,-2.2839,-2.2787,-2.2785,-2.2783,-2.2781,-2.2812,-2.2815,-2.2817,0,0,0,0,0,0,0,0,0,0,0,0,0,-2.2749,-2.2715,-2.281,-2.2788,-2.2786,-2.2838,-2.2839,-2.2839,-2.2788,-2.2785,-2.2782,-2.278,-2.2811,-2.2814,-2.2818,-2.2893,0,0,-2.2829,-2.2831,0,0,0,0,0,0,0,0,-2.2747,-2.2753,-2.2791,-2.279,-2.2788,-2.2806,-2.2815,-2.2857,-2.2788,-2.2787,-2.2782,-2.2779,-2.2813,-2.2816,-2.2827,-2.2894,-2.2896,-2.2829,-2.2832,-2.2833,-2.2834,0,0,0,0,0,0,0,-2.2744,-2.2751,-2.2821,-2.2792,-2.279,-2.2777,-2.278,-2.2823,-2.2814,-2.2787,-2.2783,-2.2787,-2.2811,-2.2824,-2.2828,-2.2896,-2.2829,-2.2833,-2.2835,-2.2836,-2.3028,-2.3031,0,0,0,0,0,0,-2.2744,-2.2749,-2.282,-2.2822,-2.276,-2.2781,-2.2784,-2.2803,-2.2814,-2.2813,-2.279,-2.2785,-2.2819,-2.2823,-2.2828,-2.2919,-2.2833,-2.2837,-2.2839,-2.3025,-2.3029,-2.3032,0,0,0,0,0,0,-2.2742,-2.2751,-2.2819,-2.2785,-2.2792,-2.2786,-2.2808,-2.2805,-2.2817,-2.2816,-2.2814,-2.2804,-2.2817,-2.2823,-2.2878,-2.2919,-2.2838,-2.2842,-2.3022,-2.3026,-2.303,-2.3099,0,0,0,0,0,0,-2.274,-2.2751,-2.2779,-2.2786,-2.2794,-2.2868,-2.281,-2.2808,-2.2824,-2.2818,-2.2829,-2.2828,-2.2815,-2.2872,-2.2881,-2.2923,-2.2845,-2.3018,-2.3024,-2.3029,-2.3093,-2.3105,-2.3115,0,0,0,0,0,-2.2736,-2.2797,-2.2781,-2.279,-2.2829,-2.287,-2.2875,-2.2859,-2.2827,-2.2856,-2.2855,-2.2827,-2.2912,-2.2878,-2.2888,-2.2931,-2.3016,-2.3022,-2.3029,-2.3088,-2.3103,-2.3115,0,0,0,0,0,0,-2.2796,-2.2797,-2.2779,-2.2844,-2.2857,-2.2861,-2.2897,-2.2875,-2.2898,-2.2892,-2.2871,-2.2874,-2.2933,-2.2937,-2.2899,-2.3005,-2.2959,-2.2968,-2.3001,-2.3015,-2.3026,-2.3024,-2.2848,0,0,0,0,0,-2.2816,-2.2849,-2.2848,-2.2905,-2.2913,-2.2904,-2.2921,-2.2908,-2.2921,-2.2926,-2.2929,-2.2944,-2.2974,-2.2994,-2.3021,-2.3092,-2.3095,-2.3127,-2.3138,-2.3147,-2.3156,-2.3195,-2.321,-2.3053,-2.3053,-2.3053,0,0,-2.2859,-2.2864,-2.2886,-2.2917,-2.2926,-2.2961,-2.2909,-2.2948,-2.2974,-2.2932,-2.2984,-2.2987,-2.3002,-2.3065,-2.3093,-2.307,-2.3199,-2.3155,-2.3163,-2.3166,-2.3204,-2.3218,-2.3232,-2.3058,-2.3057,-2.3056,0,0,-2.2955,-2.2962,-2.301,-2.302,-2.3034,-2.3028,-2.304,-2.3047,-2.3047,-2.3099,-2.3069,-2.3099,-2.3151,-2.3163,-2.3176,-2.3278,-2.3254,-2.3287,-2.3346,-2.3385,-2.3398,-2.3409,-2.3447,-2.346,-2.3295,-2.3295,-2.3295,0,-2.3007,-2.3058,-2.3038,-2.308,-2.3095,-2.3059,-2.3109,-2.3119,-2.3142,-2.3154,-2.3127,-2.3192,-2.3199,-2.3266,-2.3291,-2.3302,-2.3316,-2.3287,-2.3397,-2.3408,-2.3418,-2.3454,-2.3468,-2.3299,-2.3299,-2.3298,-2.3298,0,-2.3122,-2.3158,-2.3196,-2.3219,-2.3238,-2.3283,-2.3271,-2.3293,-2.3278,-2.3275,-2.3328,-2.3335,-2.3364,-2.3379,-2.3364,-2.3444,-2.343,-2.34,-2.3354,-2.3437,-2.3471,-2.3485,-2.3305,-2.3304,-2.3302,-2.3301,0,0,-2.3258,-2.3269,-2.3283,-2.3294,-2.3306,-2.3334,-2.3378,-2.3406,-2.3426,-2.3443,-2.348,-2.3525,-2.3498,-2.3513,-2.3499,-2.3533,-2.3616,-2.35,-2.35,-2.3523,-2.3706,-2.373,-2.3746,-2.3599,-2.3601,-2.3603,-2.3706,0,-2.3355,-2.3431,-2.3415,-2.349,-2.3524,-2.3489,-2.3528,-2.354,-2.3538,-2.3567,-2.3564,-2.3597,-2.3558,-2.3568,-2.3599,-2.3599,-2.3652,-2.3591,-2.3635,-2.3637,-2.3635,-2.3763,-2.3788,-2.3884,-2.3718,-2.3721,-2.3722,0,-2.3479,-2.3501,-2.3579,-2.3587,-2.3601,-2.3636,-2.3661,-2.3688,-2.3702,-2.3698,-2.3715,-2.3695,-2.3739,-2.3691,-2.3753,-2.3712,-2.3729,-2.3731,-2.3734,-2.374,-2.3686,-2.3774,-2.3914,-2.393,-2.3742,-2.3741,-2.3739,0,-2.3573,-2.3621,-2.3675,-2.3685,-2.3695,-2.3721,-2.3726,-2.3737,-2.3755,-2.3777,-2.3789,-2.3815,-2.3831,-2.3852,-2.384,-2.3805,-2.3905,-2.3855,-2.3905,-2.3905,-2.3929,-2.3928,-2.4076,-2.3936,-2.3936,-2.3936,-2.3935,0,-2.3685,-2.3735,-2.3718,-2.3751,-2.3806,-2.3787,-2.3842,-2.3843,-2.3854,-2.3887,-2.3858,-2.389,-2.3871,-2.3902,-2.3893,-2.3947,-2.3953,-2.3953,-2.395,-2.3957,-2.3957,-2.3969,-2.3963,-2.3939,-2.3939,-2.3938,-2.3937,0,-2.38,-2.379,-2.3847,-2.3852,-2.3854,-2.3895,-2.39,-2.3931,-2.3926,-2.3969,-2.3978,-2.3972,-2.4007,-2.3996,-2.4034,-2.4027,-2.4097,-2.4084,-2.4092,-2.409,-2.4141,-2.4138,-2.4304,-2.4326,-2.417,-2.4171,-2.4173,0,-2.3874,-2.3911,-2.392,-2.3941,-2.3948,-2.3981,-2.4,-2.3982,-2.4002,-2.4021,-2.4051,-2.4083,-2.4108,-2.4166,-2.4165,-2.4194,-2.4183,-2.4239,-2.4188,-2.4194,-2.4187,-2.4186,-2.419,-2.4251,-2.4253,-2.4254,-2.4255,0,-2.4005,-2.3999,-2.4026,-2.4053,-2.4075,-2.4095,-2.4112,-2.4131,-2.4114,-2.4139,-2.4174,-2.4194,-2.4232,-2.4265,-2.4292,-2.4298,-2.4275,-2.4271,-2.4285,-2.4293,-2.4297,-2.4298,-2.4123,-2.4268,-2.4267,-2.4266,-2.4265,-2.4265,-2.4103,-2.4136,-2.4148,-2.418,-2.4191,-2.4208,-2.4238,-2.4237,-2.4266,-2.4296,-2.4283,-2.4325,-2.4338,-2.4371,-2.4381,-2.4413,-2.4392,-2.4411,-2.4416,-2.4421,-2.4429,-2.429,-2.4418,-2.4417,-2.4417,-2.4416,-2.4416,0,-2.4236,-2.4242,-2.4271,-2.4296,-2.4322,-2.4296,-2.4314,-2.4337,-2.4374,-2.4388,-2.4413,-2.4454,-2.4486,-2.4488,-2.4518,-2.4544,-2.4534,-2.4552,-2.4552,-2.4554,-2.4445,-2.4432,-2.456,-2.456,-2.456,-2.456,-2.456,-2.456,-2.4308,-2.4362,-2.4357,-2.4417,-2.4422,-2.4462,-2.4475,-2.449,-2.4502,-2.4549,-2.4575,-2.4575,-2.4585,-2.4615,-2.4644,-2.4644,-2.4657,-2.468,-2.4676,-2.4575,-2.4561,-2.4548,-2.4535,-2.4683,-2.4683,-2.4782,-2.4783,-2.4784]},{"header":{"parameterUnit":"m.s-1","parameterCategory":1,"la1":30.2991,"la2":30.254,"lo1":-89.0895,"lo2":-89.0444,"dy":0.0017,"dx":0.0017,"nx":28,"ny":28,"refTime":"2025-02-10T03:00:00:Z","depth":0,"parameterNumber":3,"parameterNumberName":"V-component_of_WINDS"},"data":[0,0,0,0,0,0,0,0,0,0,0,0,0,0,0,0,0,0,0,0,0,0,0,0,0,0,0,0,0,0,0,0,0,0,0,0,0,0,0,0,0,0,0,0,0,0,0,0,0,0,0,0,0,0,0,0,0,0,-2.9296,-2.9296,0,-2.9281,-2.9281,-2.9281,-2.9246,-2.9245,-2.9244,-2.9244,-2.9229,-2.9229,-2.9229,0,0,0,0,0,0,0,0,0,0,0,0,0,-2.9296,-2.9296,-2.9296,-2.9296,-2.9296,-2.9281,-2.9281,-2.9281,-2.9246,-2.9245,-2.9244,-2.9243,-2.9229,-2.9229,-2.9229,0,0,0,0,0,0,0,0,0,0,0,0,0,-2.929,-2.9296,-2.9296,-2.9277,-2.9275,-2.9281,-2.9281,-2.9281,-2.9246,-2.9245,-2.9244,-2.9243,-2.9229,-2.9229,-2.923,-2.9254,0,0,-2.9231,-2.9231,0,0,0,0,0,0,0,0,-2.929,-2.929,-2.928,-2.9278,-2.9276,-2.9264,-2.9275,-2.9272,-2.9246,-2.9257,-2.9244,-2.9242,-2.9242,-2.9241,-2.924,-2.9253,-2.9253,-2.9231,-2.9231,-2.9231,-2.9231,0,0,0,0,0,0,0,-2.9291,-2.929,-2.929,-2.928,-2.9277,-2.9269,-2.9267,-2.9274,-2.9256,-2.9256,-2.9253,-2.9252,-2.924,-2.924,-2.924,-2.9252,-2.9231,-2.9231,-2.9232,-2.9232,-2.9285,-2.9286,0,0,0,0,0,0,-2.9294,-2.9291,-2.9291,-2.929,-2.928,-2.927,-2.9267,-2.9269,-2.9255,-2.9252,-2.9253,-2.925,-2.924,-2.9239,-2.9239,-2.9267,-2.9231,-2.9232,-2.9232,-2.9284,-2.9285,-2.9286,0,0,0,0,0,0,-2.9294,-2.9294,-2.9291,-2.929,-2.9289,-2.9271,-2.9273,-2.9269,-2.9269,-2.9253,-2.925,-2.9256,-2.9239,-2.9239,-2.9251,-2.9266,-2.9232,-2.9232,-2.9282,-2.9284,-2.9286,-2.9323,0,0,0,0,0,0,-2.9294,-2.9294,-2.9303,-2.929,-2.9289,-2.9303,-2.9274,-2.927,-2.927,-2.9266,-2.9255,-2.9252,-2.9238,-2.925,-2.9251,-2.9266,-2.9233,-2.9281,-2.9283,-2.9285,-2.9321,-2.9326,-2.9331,0,0,0,0,0,-2.9294,-2.9315,-2.9304,-2.9304,-2.93,-2.9304,-2.9303,-2.9286,-2.9271,-2.928,-2.927,-2.9253,-2.9264,-2.9252,-2.9252,-2.9268,-2.928,-2.9282,-2.9285,-2.9318,-2.9325,-2.9331,0,0,0,0,0,0,-2.9331,-2.9313,-2.9301,-2.9318,-2.9313,-2.9298,-2.9309,-2.9294,-2.9293,-2.929,-2.9269,-2.9267,-2.9282,-2.9276,-2.9262,-2.9291,-2.9269,-2.9272,-2.9294,-2.9301,-2.9306,-2.9307,-2.9233,0,0,0,0,0,-2.9341,-2.9346,-2.9329,-2.9346,-2.9344,-2.9327,-2.9328,-2.9315,-2.931,-2.9307,-2.9298,-2.9293,-2.9295,-2.9297,-2.9299,-2.9319,-2.9316,-2.933,-2.9335,-2.934,-2.9343,-2.9353,-2.9359,-2.9295,-2.9295,-2.9295,0,0,-2.9362,-2.9352,-2.9357,-2.9353,-2.9348,-2.9353,-2.9326,-2.9333,-2.9337,-2.9308,-2.9319,-2.9312,-2.9305,-2.9322,-2.9328,-2.9317,-2.936,-2.9343,-2.9346,-2.9347,-2.9356,-2.9362,-2.9368,-2.9296,-2.9296,-2.9296,0,0,-2.9403,-2.9396,-2.9409,-2.9404,-2.9396,-2.9385,-2.9388,-2.9375,-2.9369,-2.938,-2.9359,-2.9363,-2.9368,-2.9364,-2.9362,-2.9401,-2.9386,-2.9402,-2.9429,-2.944,-2.9445,-2.9449,-2.9464,-2.9469,-2.9405,-2.9405,-2.9405,0,-2.943,-2.9437,-2.9418,-2.9426,-2.9425,-2.94,-2.9413,-2.9409,-2.9402,-2.9402,-2.9389,-2.9395,-2.9388,-2.9403,-2.9413,-2.9412,-2.9415,-2.9404,-2.9446,-2.945,-2.9454,-2.9467,-2.9472,-2.9407,-2.9407,-2.9407,-2.9407,0,-2.9471,-2.9477,-2.9488,-2.9482,-2.9482,-2.9493,-2.9475,-2.9478,-2.9465,-2.9455,-2.9466,-2.9457,-2.9456,-2.9458,-2.9446,-2.9472,-2.9465,-2.9449,-2.9427,-2.9462,-2.9475,-2.9479,-2.941,-2.941,-2.9409,-2.9408,0,0,-2.9536,-2.9518,-2.9523,-2.9519,-2.9508,-2.9512,-2.9522,-2.9521,-2.9523,-2.9519,-2.9527,-2.9531,-2.9517,-2.9515,-2.9502,-2.9511,-2.9543,-2.9494,-2.9493,-2.9504,-2.9571,-2.9583,-2.959,-2.9532,-2.9533,-2.9533,-2.9572,0,-2.9575,-2.959,-2.9573,-2.9592,-2.9596,-2.9572,-2.958,-2.9574,-2.9565,-2.9568,-2.9557,-2.9561,-2.9541,-2.954,-2.9547,-2.9537,-2.9556,-2.9534,-2.9539,-2.954,-2.9542,-2.9596,-2.9609,-2.9646,-2.9576,-2.9577,-2.9578,0,-2.9622,-2.962,-2.964,-2.9627,-2.9629,-2.9636,-2.9634,-2.9637,-2.963,-2.9622,-2.962,-2.9604,-2.9613,-2.9591,-2.9602,-2.9588,-2.9589,-2.9584,-2.9585,-2.9585,-2.9561,-2.9598,-2.9657,-2.9663,-2.9585,-2.9584,-2.9584,0,-2.9668,-2.967,-2.9682,-2.968,-2.9666,-2.9672,-2.9666,-2.9658,-2.9658,-2.9656,-2.9656,-2.9655,-2.9654,-2.9654,-2.9638,-2.9623,-2.9652,-2.9628,-2.9646,-2.9647,-2.9654,-2.9654,-2.9714,-2.9654,-2.9653,-2.9653,-2.9653,0,-2.9714,-2.9727,-2.9702,-2.971,-2.9724,-2.9703,-2.9718,-2.9709,-2.9702,-2.9708,-2.9686,-2.9692,-2.967,-2.9673,-2.9661,-2.9673,-2.9672,-2.9667,-2.9664,-2.9669,-2.967,-2.967,-2.9667,-2.9655,-2.9654,-2.9654,-2.9654,0,-2.9768,-2.9752,-2.9763,-2.9749,-2.9745,-2.9756,-2.9743,-2.975,-2.9739,-2.9746,-2.9746,-2.9729,-2.9732,-2.9716,-2.9716,-2.9707,-2.9725,-2.9717,-2.9728,-2.9726,-2.9745,-2.9743,-2.9808,-2.9815,-2.9749,-2.975,-2.975,0,-2.9799,-2.9808,-2.9794,-2.9796,-2.9792,-2.9795,-2.9795,-2.9775,-2.9776,-2.9769,-2.9776,-2.9777,-2.9777,-2.9782,-2.977,-2.977,-2.9762,-2.9784,-2.9762,-2.9767,-2.9763,-2.9763,-2.9764,-2.979,-2.979,-2.9791,-2.9792,0,-2.9855,-2.9846,-2.9847,-2.9845,-2.9846,-2.9844,-2.984,-2.9843,-2.9821,-2.9823,-2.9826,-2.9825,-2.9825,-2.9826,-2.9824,-2.9818,-2.9802,-2.9799,-2.9803,-2.9809,-2.9815,-2.9813,-2.9741,-2.9797,-2.9797,-2.9796,-2.9796,-2.9796,-2.9899,-2.9906,-2.9897,-2.9899,-2.9894,-2.989,-2.9896,-2.9885,-2.9886,-2.9884,-2.9872,-2.9877,-2.987,-2.9864,-2.986,-2.9863,-2.9853,-2.9859,-2.986,-2.9862,-2.9866,-2.9814,-2.9863,-2.9862,-2.9862,-2.9862,-2.9862,0,-2.9954,-2.9947,-2.9949,-2.9944,-2.9945,-2.9929,-2.9924,-2.9926,-2.993,-2.9924,-2.9924,-2.9927,-2.9928,-2.9915,-2.9915,-2.992,-2.9913,-2.9921,-2.9921,-2.992,-2.9875,-2.9872,-2.9927,-2.9927,-2.9927,-2.9927,-2.9927,-2.9927,-2.9984,-2.9995,-2.9985,-2.9994,-2.9987,-2.9991,-2.9989,-2.9986,-2.9981,-2.9985,-2.9986,-2.9977,-2.9969,-2.9967,-2.9968,-2.9964,-2.9965,-2.9976,-2.997,-2.9929,-2.9923,-2.9917,-2.9913,-2.9976,-2.9976,-3.0014,-3.0014,-3.0014]}]]